When you browse on this site, cookies collect data to enhance your experience and personalize the content and advertising you see.
Visit our Privacy Policy to learn more. By continuing to use the site, you agree to this use of cookies and data.
  • In Hungary
  • List of Countries
  • For 7 days
  • Water Temperature
  • Satellite Maps
  • Weather Map
  • News
  • Weather Widgets
  • user-avatar
    Login

    Hourly Weather Tottori

    Today, 17 November, Saturday

    Time Temperature Precipitation Wind Pressure Humidity
    00:00 +10°C° 0 mm 1 mps 731 mmHg 78%
    01:00 +8°C° 0 mm 2 mps 731 mmHg 79%
    02:00 +8°C° 0 mm 2 mps 732 mmHg 80%
    03:00 +8°C° 0 mm 2 mps 731 mmHg 81%
    04:00 +8°C° 0 mm 2 mps 731 mmHg 82%
    05:00 +8°C° 0 mm 2 mps 732 mmHg 83%
    06:00 +8°C° 0 mm 2 mps 732 mmHg 84%
    07:00 +9°C° 0.1 mm 2 mps 732 mmHg 81%
    08:00 +12°C° 0.1 mm 2 mps 732 mmHg 78%
    09:00 +13°C° 0 mm 2 mps 732 mmHg 78%
    10:00 +13°C° 0.2 mm 3 mps 732 mmHg 76%
    11:00 +13°C° 0.2 mm 3 mps 732 mmHg 74%
    12:00 +14°C° 0.2 mm 4 mps 732 mmHg 72%
    13:00 +14°C° 0.1 mm 4 mps 732 mmHg 73%
    14:00 +13°C° 0.1 mm 4 mps 732 mmHg 74%
    15:00 +12°C° 0 mm 4 mps 732 mmHg 76%
    16:00 +11°C° 0 mm 3 mps 732 mmHg 79%
    17:00 +10°C° 0 mm 3 mps 732 mmHg 82%
    18:00 +9°C° 0 mm 3 mps 732 mmHg 86%
    19:00 +9°C° 0 mm 2 mps 732 mmHg 86%
    20:00 +8°C° 0 mm 2 mps 732 mmHg 87%
    21:00 +8°C° 0 mm 2 mps 732 mmHg 88%
    22:00 +8°C° 0 mm 2 mps 732 mmHg 88%
    23:00 +8°C° 0 mm 2 mps 732 mmHg 88%

    Tomorrow, 18 November, Sunday

    Time Temperature Precipitation Wind Pressure Humidity
    00:00 +8°C° 0 mm 2 mps 732 mmHg 88%
    01:00 +8°C° 0 mm 2 mps 732 mmHg 88%
    02:00 +8°C° 0 mm 2 mps 733 mmHg 88%
    03:00 +8°C° 0 mm 2 mps 733 mmHg 88%
    04:00 +7°C° 0 mm 2 mps 733 mmHg 88%
    05:00 +7°C° 0 mm 2 mps 732 mmHg 89%
    06:00 +7°C° 0 mm 2 mps 732 mmHg 90%
    07:00 +8°C° 0 mm 2 mps 732 mmHg 85%
    08:00 +10°C° 0 mm 2 mps 732 mmHg 79%
    09:00 +12°C° 0 mm 2 mps 733 mmHg 74%
    10:00 +14°C° 0 mm 2 mps 732 mmHg 68%
    11:00 +15°C° 0 mm 2 mps 732 mmHg 63%
    12:00 +16°C° 0 mm 2 mps 732 mmHg 58%
    13:00 +16°C° 0 mm 2 mps 731 mmHg 58%
    14:00 +16°C° 0 mm 2 mps 731 mmHg 58%
    15:00 +16°C° 0 mm 2 mps 731 mmHg 58%
    16:00 +15°C° 0.1 mm 2 mps 731 mmHg 63%
    17:00 +14°C° 0.1 mm 2 mps 731 mmHg 69%
    18:00 +13°C° 0.1 mm 2 mps 731 mmHg 74%
    19:00 +12°C° 0.2 mm 2 mps 731 mmHg 78%
    20:00 +12°C° 0.2 mm 2 mps 731 mmHg 81%
    21:00 +10°C° 0.2 mm 2 mps 732 mmHg 85%
    22:00 +10°C° 0.2 mm 2 mps 731 mmHg 86%
    23:00 +10°C° 0.2 mm 2 mps 731 mmHg 86%

    Day after tomorrow, 19 November, Monday

    Time Temperature Precipitation Wind Pressure Humidity
    00:00 +10°C° 0.2 mm 2 mps 731 mmHg 87%
    01:00 +10°C° 0.2 mm 2 mps 731 mmHg 87%
    02:00 +10°C° 0.2 mm 2 mps 731 mmHg 88%
    03:00 +10°C° 0.2 mm 2 mps 731 mmHg 88%
    04:00 +10°C° 0.3 mm 2 mps 732 mmHg 88%
    05:00 +9°C° 0.3 mm 2 mps 732 mmHg 89%
    06:00 +9°C° 0.3 mm 2 mps 732 mmHg 89%
    07:00 +10°C° 0.2 mm 2 mps 732 mmHg 87%
    08:00 +10°C° 0.2 mm 3 mps 733 mmHg 85%
    09:00 +10°C° 0.2 mm 3 mps 733 mmHg 82%
    10:00 +11°C° 0 mm 3 mps 733 mmHg 77%
    11:00 +11°C° 0 mm 3 mps 733 mmHg 72%
    12:00 +12°C° 0 mm 3 mps 733 mmHg 67%
    13:00 +12°C° 0 mm 3 mps 733 mmHg 65%
    14:00 +12°C° 0 mm 4 mps 733 mmHg 63%
    15:00 +12°C° 0 mm 4 mps 732 mmHg 61%
    16:00 +11°C° 0 mm 3 mps 733 mmHg 66%
    17:00 +9°C° 0 mm 3 mps 733 mmHg 71%
    18:00 +8°C° 0 mm 2 mps 733 mmHg 76%
    19:00 +7°C° 0 mm 2 mps 733 mmHg 77%
    20:00 +7°C° 0 mm 2 mps 733 mmHg 78%
    21:00 +8°C° 0 mm 1 mps 734 mmHg 80%
    22:00 +6°C° 0 mm 2 mps 734 mmHg 80%
    23:00 +6°C° 0 mm 2 mps 734 mmHg 80%

    20 November, Tuesday

    Time Temperature Precipitation Wind Pressure Humidity
    00:00 +6°C° 0 mm 2 mps 734 mmHg 81%
    01:00 +6°C° 0 mm 2 mps 734 mmHg 81%
    02:00 +6°C° 0 mm 2 mps 734 mmHg 81%
    03:00 +5°C° 0 mm 2 mps 734 mmHg 81%
    04:00 +5°C° 0 mm 2 mps 734 mmHg 81%
    05:00 +5°C° 0 mm 2 mps 734 mmHg 82%
    06:00 +6°C° 0 mm 2 mps 734 mmHg 82%
    07:00 +7°C° 0 mm 2 mps 734 mmHg 77%
    08:00 +8°C° 0 mm 2 mps 735 mmHg 72%
    09:00 +10°C° 0 mm 2 mps 735 mmHg 67%
    10:00 +12°C° 0 mm 2 mps 735 mmHg 63%
    11:00 +11°C° 0 mm 3 mps 735 mmHg 59%
    12:00 +12°C° 0 mm 3 mps 735 mmHg 55%
    13:00 +12°C° 0 mm 3 mps 735 mmHg 55%
    14:00 +12°C° 0 mm 3 mps 735 mmHg 54%
    15:00 +12°C° 0 mm 3 mps 735 mmHg 54%
    16:00 +11°C° 0 mm 3 mps 735 mmHg 60%
    17:00 +9°C° 0 mm 3 mps 735 mmHg 65%
    18:00 +7°C° 0 mm 2 mps 736 mmHg 71%
    19:00 +7°C° 0 mm 2 mps 736 mmHg 73%
    20:00 +6°C° 0 mm 2 mps 736 mmHg 74%
    21:00 +6°C° 0 mm 2 mps 736 mmHg 76%
    22:00 +6°C° 0 mm 2 mps 736 mmHg 77%
    23:00 +5°C° 0 mm 2 mps 736 mmHg 78%

    21 November, Wednesday

    Time Temperature Precipitation Wind Pressure Humidity
    00:00 +6°C° 0 mm 1 mps 736 mmHg 80%
    01:00 +5°C° 0 mm 2 mps 736 mmHg 80%
    02:00 +5°C° 0 mm 2 mps 736 mmHg 80%
    03:00 +5°C° 0 mm 2 mps 736 mmHg 80%
    04:00 +5°C° 0 mm 2 mps 736 mmHg 80%
    05:00 +4°C° 0 mm 2 mps 736 mmHg 80%
    06:00 +4°C° 0 mm 2 mps 736 mmHg 80%
    07:00 +6°C° 0 mm 2 mps 736 mmHg 73%
    08:00 +9°C° 0 mm 1 mps 736 mmHg 67%
    09:00 +11°C° 0 mm 1 mps 737 mmHg 60%
    10:00 +12°C° 0 mm 1 mps 736 mmHg 55%
    11:00 +14°C° 0 mm 1 mps 736 mmHg 49%
    12:00 +15°C° 0 mm 1 mps 735 mmHg 44%
    13:00 +15°C° 0 mm 1 mps 735 mmHg 44%
    14:00 +15°C° 0 mm 1 mps 734 mmHg 44%
    15:00 +14°C° 0 mm 1 mps 734 mmHg 44%
    16:00 +13°C° 0 mm 1 mps 734 mmHg 51%
    17:00 +11°C° 0 mm 1 mps 734 mmHg 57%
    18:00 +10°C° 0 mm 1 mps 734 mmHg 63%
    19:00 +10°C° 0 mm 1 mps 734 mmHg 64%
    20:00 +9°C° 0 mm 1 mps 734 mmHg 65%
    21:00 +9°C° 0 mm 1 mps 734 mmHg 67%
    22:00 +9°C° 0 mm 1 mps 733 mmHg 67%
    23:00 +9°C° 0 mm 1 mps 733 mmHg 67%

    22 November, Thursday

    Time Temperature Precipitation Wind Pressure Humidity
    00:00 +9°C° 0 mm 1 mps 733 mmHg 67%
    01:00 +9°C° 0.1 mm 1 mps 732 mmHg 70%
    02:00 +9°C° 0.1 mm 1 mps 732 mmHg 72%
    03:00 +9°C° 0.1 mm 1 mps 731 mmHg 75%
    04:00 +8°C° 0.2 mm 1 mps 731 mmHg 78%
    05:00 +8°C° 0.2 mm 1 mps 731 mmHg 80%
    06:00 +8°C° 0.2 mm 1 mps 731 mmHg 83%
    07:00 +8°C° 0 mm 2 mps 732 mmHg 78%
    08:00 +9°C° 0 mm 2 mps 732 mmHg 74%
    09:00 +9°C° 0 mm 2 mps 732 mmHg 70%
    10:00 +10°C° 0.1 mm 3 mps 732 mmHg 67%
    11:00 +11°C° 0.1 mm 3 mps 732 mmHg 64%
    12:00 +12°C° 0.1 mm 4 mps 731 mmHg 62%
    13:00 +12°C° 0.2 mm 4 mps 731 mmHg 65%
    14:00 +11°C° 0.2 mm 4 mps 731 mmHg 68%
    15:00 +11°C° 0.2 mm 4 mps 731 mmHg 71%
    16:00 +8°C° 0.1 mm 4 mps 732 mmHg 74%
    17:00 +7°C° 0.1 mm 4 mps 732 mmHg 78%
    18:00 +6°C° 0.1 mm 4 mps 732 mmHg 81%
    19:00 +6°C° 0 mm 4 mps 733 mmHg 81%
    20:00 +5°C° 0 mm 4 mps 733 mmHg 82%
    21:00 +5°C° 0 mm 4 mps 733 mmHg 82%
    22:00 +4°C° 0 mm 3 mps 733 mmHg 82%
    23:00 +4°C° 0 mm 3 mps 733 mmHg 82%
    Show more